OBJECT T, 57183

Orbit data source: Space-Track

You're viewing an uncataloged RSO

Recently launched and/or uncataloged RSOs may have evolving metadata. Metadata may include the following, but is not limited to: Owner, Manufacturer, Bus, Motor, and Mission.

OBJECT T, 57183 is a satellite in SSO that was launched on Tue, 27 Jun 2023 UTC via a SOYUZ-2-1B launch vehicle from the Vostochny Cosmodrome (VOSTO). Unknown objects in Earth's orbit typically refer to objects detected orbiting the Earth but have not yet been identified or cataloged. These objects could be anything from previously untracked satellites, spent rocket stages, debris from satellite collisions, or even natural meteoroids temporarily captured by Earth's gravity.

Loading next visibility...
Identifier
57183, 2023-091T
Orbit
SSO
Country
Flag of TBDTBD
Related business
None
Manufacturer
Unknown
Mission
Operational Commercial Communications
Bus & Motor
Unknown
Mass
Unknown
Launch date (UTC)
2023-06-27 (3 years ago)
Launch vehicle
SOYUZ-2-1B
Launch site
Vostochny Cosmodrome (VOSTO)
Object type
Unknown
Shape & HBR
Box + 2 Pan, 1.5 m
Radar Cross Section
1.055 m², Medium (>0.1 m² and < 1m²)

Expand to show TLE details & history
Last TLE update: 4 hours ago

TLE from 4 hours ago
0 OBJECT T
1 57183U 23091T   26257.18015808  .00003627  00000-0  17303-3 0  9997
2 57183  97.4994 315.2601 0011739 153.2808 206.9033 15.19662494177481
Epoch: 2026-09-14T04:19Z
TLE epoch observation values (Epoch: 2026-09-14T04:19:25.658Z)
Latitude
-0.00008°
Longitude
-102.76096°
Altitude
517.158 km
Speed
7.601 km/s
True Right ascension
21h 01m 02s
True Declination
0° 00' 00"
Sunlit
Object was in full shadow at epoch
Visualization orbit readout
Latitude
Unknown
Longitude
Unknown
Altitude
Unknown
Speed
Unknown
Apparent Right ascension
Unknown
Apparent Declination
Unknown
Sunlit
N/A
Visualization observer readout
Local Sidereal Time
00:22:53
Azimuth
Unknown
Elevation
Unknown
Doppler factor
Unknown
Orbital elements
Apogee altitude
511.909 km
Perigee altitude
495.751 km
Semi-major axis
6,881.967 km
Eccentricity
0.00117
Inclination
97.4994°
RAAN
315.2601°
Arg. of periapsis
153.2808°
True anomaly
206.84251°
Mean anomaly
206.9033°
Eccentric anomaly
206.8729°
Mean motion
3.80167 °/min
Orbital period
94.7 mins
BSTAR
0.00017303
Loading maneuver chart data...
Computing Atmospheric mass density...
Loading historical data...
Loading historical data...
Loading historical data...
Loading historical data...
Loading historical data...
Loading historical data...
Loading historical data...

Documentation

Showing up to 5 results
|